TimeMDT,TemperatureF,Dew PointF,Humidity,Sea Level PressureIn,VisibilityMPH,Wind Direction,Wind SpeedMPH,Gust SpeedMPH,PrecipitationIn,Events,Conditions,WindDirDegrees,DateUTC
12:56 AM,44.1,36.0,73,29.50,10.0,West,12.7,-,N/A,,Mostly Cloudy,280,2013-04-30 06:56:00
1:56 AM,43.0,34.0,71,29.52,10.0,West,16.1,-,N/A,,Clear,270,2013-04-30 07:56:00
2:56 AM,39.9,30.0,68,29.53,10.0,West,17.3,-,N/A,,Clear,260,2013-04-30 08:56:00
3:56 AM,37.0,27.0,67,29.57,10.0,WSW,16.1,26.5,N/A,,Clear,250,2013-04-30 09:56:00
4:56 AM,37.0,28.9,73,29.57,10.0,WSW,25.3,31.1,N/A,,Scattered Clouds,250,2013-04-30 10:56:00
5:28 AM,37.4,30.2,75,29.56,10.0,West,26.5,39.1,N/A,,Overcast,270,2013-04-30 11:28:00
5:56 AM,37.9,32.0,79,29.60,10.0,West,29.9,36.8,N/A,,Overcast,270,2013-04-30 11:56:00
6:14 AM,37.4,33.8,87,29.59,10.0,West,27.6,36.8,N/A,,Overcast,270,2013-04-30 12:14:00
6:56 AM,36.0,32.0,86,29.64,10.0,West,31.1,44.9,N/A,,Overcast,270,2013-04-30 12:56:00
7:28 AM,35.6,28.4,75,29.63,10.0,West,32.2,42.6,N/A,,Overcast,280,2013-04-30 13:28:00
7:56 AM,37.0,28.0,70,29.68,10.0,West,31.1,43.7,N/A,,Overcast,280,2013-04-30 13:56:00
8:23 AM,39.2,26.6,61,29.65,10.0,WNW,32.2,42.6,N/A,,Overcast,290,2013-04-30 14:23:00
8:45 AM,37.4,26.6,65,29.67,10.0,West,27.6,42.6,N/A,,Overcast,280,2013-04-30 14:45:00
8:56 AM,37.9,27.0,65,29.70,10.0,WNW,25.3,41.4,N/A,,Overcast,290,2013-04-30 14:56:00
9:22 AM,39.2,26.6,61,29.68,10.0,WNW,35.7,42.6,N/A,,Overcast,290,2013-04-30 15:22:00
9:56 AM,39.0,27.0,62,29.73,10.0,WNW,31.1,46.0,N/A,,Overcast,290,2013-04-30 15:56:00
10:13 AM,39.2,26.6,61,29.70,10.0,WNW,34.5,43.7,N/A,,Overcast,290,2013-04-30 16:13:00
10:35 AM,41.0,26.6,57,29.72,10.0,WNW,31.1,42.6,N/A,,Overcast,290,2013-04-30 16:35:00
10:56 AM,39.9,26.1,58,29.77,10.0,WNW,29.9,41.4,N/A,,Overcast,290,2013-04-30 16:56:00
11:56 AM,41.0,26.1,55,29.80,10.0,WNW,31.1,41.4,N/A,,Overcast,290,2013-04-30 17:56:00
12:04 PM,41.0,24.8,53,29.77,10.0,WNW,34.5,42.6,N/A,,Overcast,290,2013-04-30 18:04:00
12:56 PM,41.0,25.0,53,29.82,10.0,WNW,28.8,39.1,N/A,,Overcast,290,2013-04-30 18:56:00
1:56 PM,42.1,25.0,51,29.84,10.0,WNW,29.9,42.6,N/A,,Overcast,300,2013-04-30 19:56:00
2:56 PM,41.0,24.1,51,29.88,10.0,NW,28.8,36.8,N/A,,Overcast,310,2013-04-30 20:56:00
3:56 PM,39.9,24.1,53,29.92,10.0,WNW,28.8,39.1,N/A,,Overcast,290,2013-04-30 21:56:00
4:56 PM,39.0,23.0,53,29.98,10.0,WNW,21.9,32.2,N/A,,Overcast,300,2013-04-30 22:56:00
5:56 PM,37.0,21.9,54,30.03,10.0,WNW,24.2,-,N/A,,Overcast,300,2013-04-30 23:56:00
6:56 PM,35.1,21.9,59,30.07,10.0,NW,24.2,29.9,N/A,,Overcast,320,2013-05-01 00:56:00
7:56 PM,33.1,21.0,61,30.14,10.0,NW,20.7,31.1,N/A,,Overcast,320,2013-05-01 01:56:00
8:56 PM,33.1,19.9,59,30.18,10.0,NW,12.7,-,N/A,,Overcast,310,2013-05-01 02:56:00
9:56 PM,33.1,19.9,59,30.22,10.0,WNW,9.2,-,N/A,,Overcast,300,2013-05-01 03:56:00
11:56 PM,23.0,17.1,78,30.25,10.0,West,9.2,-,N/A,,Clear,280,2013-05-01 05:56:00